Regional Weather Roundup
Issued by NWS Cleveland, OH

Home | Current Version | Previous Version | Text Only | Print | Product List | Glossary Off
Versions: 1 2 3 4 5 6 7 8 9 10 11 12 13 14 15 16 17 18 19 20 21 22 23 24 25 26 27 28 29 30 31 32 33 34 35 36 37 38 39 40 41 42 43 44 45 46 47 48 49 50

000
ASUS41 KCLE 252302
RWRCLE
OHIO REGIONAL WEATHER ROUNDUP
NATIONAL WEATHER SERVICE CLEVELAND, OH
700 PM EDT SUN JUN 25 2017

NOTE: "FAIR" INDICATES FEW OR NO CLOUDS BELOW 12,000 FEET WITH NO
SIGNIFICANT WEATHER AND/OR OBSTRUCTIONS TO VISIBILITY.

OHZ001>008-015>018-024>027-034-035-043-044-260000-
   NORTHWEST OHIO

CITY           SKY/WX    TMP DP  RH WIND       PRES   REMARKS
DEFIANCE       CLOUDY    69  44  40 W6        30.06S
FINDLAY        MOSUNNY   72  44  36 W15G24    30.05F
TOLEDO EXPRESS PTSUNNY   70  43  37 W13G22    30.03F
TOLEDO EXEC    PTSUNNY   73  44  35 W15G25    30.04S
LIMA           MOSUNNY   70  45  40 W16G25    30.07F
$$

OHZ009>014-019>023-028>033-038-089-260000-
   NORTHEAST OHIO

CITY           SKY/WX    TMP DP  RH WIND       PRES   REMARKS
CLE-HOPKINS    PTSUNNY   73  46  38 W14G21    30.05S
CLE-LAKEFRONT  SUNNY     70  51  51 W13       30.02F
CUY CO. ARPT   MOSUNNY   72  50  46 NW14      30.04F
LORAIN-ELYRIA  PTSUNNY   70  42  36 W8G18     30.04F
ASHTABULA      SUNNY     67  44  43 W14G23    30.05S
AKRON-CANTON   MOSUNNY   71  42  35 W15G23    30.05S
WOOSTER        MOSUNNY   67  45  45 W13       30.07R
MANSFIELD      MOSUNNY   70  44  39 W8        30.07S
YOUNGSTOWN     MOSUNNY   69  47  45 NW14      30.04R
$$

OHZ042-051>053-060>062-070>072-077>081-260000-
  SOUTHWEST OHIO

CITY           SKY/WX    TMP DP  RH WIND       PRES   REMARKS
CINC-COVINGTON MOSUNNY   76  48  37 NW16      30.09F
CINC-LUNKEN    MOSUNNY   76  48  37 W13G25    30.08F
HAMILTON       SUNNY     76  50  40 W14       30.10F
DAYTON         MOSUNNY   72  45  37 W16       30.10F
WRIGHT-PAT AFB SUNNY     73  44  34 W14G22    30.08F
DAYTON GENERAL SUNNY     73  44  35 W10       30.09F
WILMINGTON     SUNNY     73  46  38 NW15G23   30.08F
$$

OHZ036-037-039>041-045>050-054>059-063>069-073>076-082>088-260000-
  CENTRAL AND SOUTHEAST OHIO

CITY           SKY/WX    TMP DP  RH WIND       PRES   REMARKS
COLUMBUS       MOSUNNY   72  46  39 W16G22    30.07S
OSU AIRPORT    MOSUNNY   71  46  40 W20       30.08S
BOLTON FIELD   SUNNY     72  46  40 NW18G24   30.09S
RICKENBACK AFB SUNNY     72  46  39 W16G25    30.07S
NEWARK         MOSUNNY   73  42  32 W15G24    30.07R
MARION         MOSUNNY   71  43  36 W16G22    30.08S
LANCASTER      SUNNY     73  49  42 NW13      30.08R
ZANESVILLE     SUNNY     74  46  36 NW14G21   30.06R
NEW PHILLY     NOT AVBL
$$



USA.gov is the U.S. government's official web portal to all federal, state and local government web resources and services.